Weather History for KFHR - February, 2013

Change the Weather History Date:

Sunday, February 24, 2013

  Actual Average Record
Temperature  
Mean Temperature 44 °F -  
Max Temperature 46 °F 46 °F 54 °F (2005)
Min Temperature 41 °F 34 °F 24 °F (2011)
Degree Days  
Heating Degree Days 22    
Moisture  
Dew Point 37 °F    
Average Humidity 78    
Maximum Humidity 86    
Minimum Humidity 70    
Precipitation  
Precipitation 0.00 in - - ()
Sea Level Pressure  
Sea Level Pressure 30.18 in    
Wind  
Wind Speed 12 mph (SE)    
Max Wind Speed 28 mph    
Max Gust Speed 39 mph    
Visibility 10 miles    
Events      
Averages and records for this station are not official NWS values.
T = Trace of Precipitation, MM = Missing Value Source: NWS Daily Summary

Daily Weather History Graph

Daily Weather History Graph

Search for Another Location

Airport or City:

Trip Planner

Search our weather history database for the weather conditions in past years. The results will help you decide how hot, cold, wet, or windy it might be!

Date:

Astronomy

Feb. 24, 2013 Rise Set
Actual Time 7:02 AM PST 5:48 PM PST
Civil Twilight 6:30 AM PST 6:20 PM PST
Nautical Twilight 5:54 AM PST 6:56 PM PST
Astronomical Twilight 5:18 AM PST 7:33 PM PST
Moon 5:06 PM PST (2/24) 6:04 AM PST (2/24)
Length of Visible Light 11h 49m
Length of Day
10h 46m
Waxing Gibbous, 99% of the Moon is Illuminated
Feb 24
Waxing Gibbous
Feb 25
Full
Mar 4
Last Quarter
Mar 11
New
Mar 19
First Quarter

Hourly Weather History & Observations

Time (PST) Temp. Windchill Dew Point Humidity Pressure Visibility Wind Dir Wind Speed Gust Speed Precip Events Conditions
12:53 AM 42.1 °F 39.2 °F 34.0 °F 73% 30.35 in 10.0 mi SW 4.6 mph - N/A   Overcast
1:53 AM 42.1 °F 38.4 °F 33.1 °F 70% 30.36 in 10.0 mi SW 5.8 mph - N/A   Overcast
2:53 AM 42.1 °F 38.4 °F 35.1 °F 76% 30.36 in 10.0 mi South 5.8 mph - N/A   Overcast
3:53 AM 41.0 °F - 35.1 °F 79% 30.35 in 10.0 mi Calm Calm - N/A   Overcast
4:53 AM 41.0 °F 36.4 °F 36.0 °F 82% 30.33 in 10.0 mi ESE 6.9 mph - N/A   Overcast
5:53 AM 41.0 °F 34.3 °F 37.0 °F 86% 30.32 in 10.0 mi ESE 11.5 mph - N/A   Overcast
6:26 AM 41.0 °F 34.7 °F 35.6 °F 81% 30.31 in 10.0 mi ESE 10.4 mph - N/A   Overcast
6:53 AM 41.0 °F 35.2 °F 37.0 °F 86% 30.31 in 10.0 mi ESE 9.2 mph - N/A   Overcast
7:20 AM 41.0 °F 33.9 °F 35.6 °F 81% 30.31 in 10.0 mi SE 12.7 mph - N/A   Overcast
7:41 AM 41.0 °F 32.5 °F 35.6 °F 81% 30.30 in 10.0 mi ESE 17.3 mph 21.9 mph N/A   Overcast
7:53 AM 41.0 °F 34.3 °F 36.0 °F 82% 30.30 in 10.0 mi ESE 11.5 mph - N/A   Overcast
8:45 AM 42.8 °F 35.4 °F 35.6 °F 76% 30.29 in 10.0 mi ESE 15.0 mph - N/A   Overcast
8:53 AM 43.0 °F 36.0 °F 37.0 °F 80% 30.29 in 10.0 mi SE 13.8 mph - N/A   Overcast
9:53 AM 44.1 °F 36.8 °F 37.0 °F 76% 30.28 in 10.0 mi SE 16.1 mph 23.0 mph N/A   Overcast
10:53 AM 44.1 °F 37.4 °F 37.0 °F 76% 30.26 in 10.0 mi ESE 13.8 mph 19.6 mph N/A   Overcast
11:03 AM 44.6 °F 38.4 °F 37.4 °F 76% 30.25 in 10.0 mi ESE 12.7 mph 23.0 mph N/A   Overcast
11:21 AM 44.6 °F 37.8 °F 37.4 °F 76% 30.24 in 10.0 mi ESE 15.0 mph 21.9 mph N/A   Overcast
11:36 AM 44.6 °F 38.1 °F 37.4 °F 76% 30.24 in 10.0 mi SE 13.8 mph - N/A   Overcast
11:53 AM 45.0 °F 37.9 °F 37.0 °F 74% 30.24 in 10.0 mi ESE 16.1 mph 23.0 mph N/A   Overcast
12:53 PM 45.0 °F 38.2 °F 37.0 °F 74% 30.22 in 10.0 mi SE 15.0 mph 27.6 mph N/A   Overcast
1:53 PM 45.0 °F 37.6 °F 37.9 °F 76% 30.19 in 10.0 mi SE 17.3 mph 25.3 mph N/A   Overcast
2:04 PM 44.6 °F 37.2 °F 37.4 °F 76% 30.18 in 10.0 mi SE 17.3 mph 26.5 mph N/A   Overcast
2:53 PM 45.0 °F 37.1 °F 37.9 °F 76% 30.15 in 10.0 mi SE 19.6 mph 27.6 mph N/A   Overcast
3:03 PM 44.6 °F 36.9 °F 37.4 °F 76% 30.15 in 10.0 mi SE 18.4 mph 27.6 mph N/A   Overcast
3:53 PM 45.0 °F 37.4 °F 37.9 °F 76% 30.12 in 10.0 mi SE 18.4 mph 27.6 mph N/A   Overcast
4:10 PM 46.4 °F 39.2 °F 37.4 °F 71% 30.11 in 10.0 mi SE 18.4 mph 27.6 mph N/A   Overcast
4:53 PM 45.0 °F 36.2 °F 37.9 °F 76% 30.09 in 10.0 mi SE 24.2 mph 33.4 mph N/A   Overcast
5:53 PM 45.0 °F 36.4 °F 37.9 °F 76% 30.04 in 10.0 mi SE 23.0 mph 39.1 mph N/A   Overcast
6:53 PM 45.0 °F 35.8 °F 39.0 °F 80% 30.00 in 10.0 mi SE 26.5 mph 35.7 mph N/A   Overcast
7:05 PM 44.6 °F 35.7 °F 39.2 °F 81% 30.00 in 10.0 mi SE 24.2 mph 34.5 mph N/A   Overcast
7:13 PM 44.6 °F 36.6 °F 37.4 °F 76% 30.00 in 10.0 mi SE 19.6 mph 35.7 mph N/A   Overcast
7:53 PM 45.0 °F 36.0 °F 39.0 °F 80% 29.97 in 10.0 mi SE 25.3 mph 35.7 mph N/A   Overcast
8:53 PM 45.0 °F 36.6 °F 39.0 °F 80% 29.94 in 10.0 mi SE 21.9 mph 36.8 mph N/A   Overcast
9:53 PM 44.1 °F 34.4 °F 37.9 °F 79% 29.89 in 10.0 mi SE 27.6 mph 38.0 mph N/A   Mostly Cloudy
10:53 PM 44.1 °F 34.4 °F 37.9 °F 79% 29.87 in 10.0 mi SE 27.6 mph 39.1 mph N/A   Scattered Clouds
11:53 PM 44.1 °F 35.9 °F 37.9 °F 79% 29.86 in 10.0 mi SSE 19.6 mph 33.4 mph N/A   Mostly Cloudy